Regional Weather Roundup
Issued by NWS

Home | Current Version | Previous Version | Text Only | Print | Product List | Glossary Off
Versions: 1 2 3 4 5 6 7 8 9 10 11 12 13 14 15 16 17 18 19 20 21 22 23 24 25 26 27 28 29 30 31 32 33 34 35 36 37 38 39 40 41 42 43 44 45 46 47 48 49 50

076
ASUS43 KBIS 291602
RWRND

NORTH DAKOTA REGIONAL WEATHER ROUNDUP
NATIONAL WEATHER SERVICE BISMARCK ND
1100 AM CDT MON AUG 29 2016

NOTE: "FAIR" INDICATES FEW OR NO CLOUDS BELOW 12,000 FEET WITH NO
SIGNIFICANT WEATHER AND/OR OBSTRUCTIONS TO VISIBILITY.


NDZ001>003-009>011-017-291700-
NORTHWEST NORTH DAKOTA

CITY           SKY/WX    TMP DP  RH WIND       PRES   REMARKS
WILLISTON      SUNNY     62  44  51 NE8       30.32R
MINOT          SUNNY     64  47  53 N10       30.27S
MINOT AFB      SUNNY     63  47  56 N13       30.27R
$$

NDZ018>021-031>035-040>046-291700-
SOUTHWEST NORTH DAKOTA

CITY           SKY/WX    TMP DP  RH WIND       PRES   REMARKS
BISMARCK       CLOUDY    67  50  54 N12       30.26R
DICKINSON      SUNNY     67  46  47 N12       30.30R
GARRISON         N/A     64  48  56 N8        30.27R
HETTINGER ARPT SUNNY     69  50  50 NE16      30.29R
$$

NDZ004>008-012>016-024-026-027-054-291700-
NORTHEAST NORTH DAKOTA

CITY           SKY/WX    TMP DP  RH WIND       PRES   REMARKS
GRAND FORKS    PTSUNNY   72  62  71 NW9       30.16R
GRND FRKS AFB  SUNNY     71  61  71 N8        30.17R
DEVILS LAKE    SUNNY     65  52  62 N13       30.24R
$$

NDZ022-023-025-028>030-036>039-047>053-291700-
SOUTHEAST NORTH DAKOTA

CITY           SKY/WX    TMP DP  RH WIND       PRES   REMARKS
FARGO          CLOUDY    76  69  79 W7        30.14R
JAMESTOWN      SUNNY     72  61  68 N10       30.21R
$$





USA.gov is the U.S. government's official web portal to all federal, state and local government web resources and services.